This demonstration page uses our WeatherBlox Daily Observations layout. Learn more.

Hourly Observations for November 2, 2016

Temp ( °F °C ) Dew Point ( °F °C ) Humidity (%) Winds ( mph kmh ) Pressure ( in mb ) Visibility ( mi km ) Precip ( " mm )
12:54 am 00:54 Cloudy 62 16.7 42 5.6 48 48 NE 12 19 29.93 1014 10 16.0934 0 0
1:54 am 01:54 Cloudy 63 17.2 42 5.6 47 47 N 7 11 29.95 1014 10 16.0934 0 0
2:54 am 02:54 Cloudy with Light Rain 61 16.1 46 7.8 58 58 ENE 8 13 29.95 1014 10 16.0934 0 0.0254
3:54 am 03:54 Mostly Cloudy 59 15 45 7.2 60 60 N 8 13 29.96 1015 10 16.0934 0 0.0254
4:54 am 04:54 Partly Cloudy 59 15 47 8.3 64 64 NE 5 7 29.96 1015 10 16.0934 0 0
5:03 am 05:03 Mostly Cloudy 59 15 48 8.9 67 67 NNE 7 11 30 1016 10 16.0934 0 0
5:54 am 05:54 Cloudy 59 15 50 10 72 72 NE 9 15 29.98 1015 10 16.0934 0 0
6:54 am 06:54 Cloudy 59 15 51 10.6 75 75 NE 10 17 30 1016 10 16.0934 0 0
7:54 am 07:54 Cloudy 59 15 52 11.1 78 78 NE 9 15 30.02 1017 10 16.0934 0 0
8:54 am 08:54 Cloudy 58 14.4 46 7.8 65 65 NNE 10 17 30.05 1018 10 16.0934 0 0
9:54 am 09:54 Cloudy 59 15 48 8.9 67 67 NE 10 17 30.08 1019 10 16.0934 0 0
10:14 am 10:14 Cloudy 61 16 48 9 63 63 NE 7 11 30.09 1019 10 16.0934 0 0
10:54 am 10:54 Cloudy 62 16.7 52 11.1 70 70 NE 9 15 30.09 1019 10 16.0934 0 0
11:54 am 11:54 Cloudy 62 16.7 52 11.1 70 70 NNE 14 22 30.1 1019 10 16.0934 0 0
12:54 pm 12:54 Cloudy 63 17.2 51 10.6 65 65 NNE 13 20 30.09 1019 10 16.0934 0 0
1:54 pm 13:54 Cloudy 64 17.8 51 10.6 63 63 NNE 8 13 30.1 1019 10 16.0934 0 0
2:54 pm 14:54 Cloudy 66 18.9 50 10 56 56 N 13 20 30.09 1019 10 16.0934 0 0
3:54 pm 15:54 Cloudy 66 18.9 50 10 56 56 N 10 17 30.12 1020 10 16.0934 0 0
4:54 pm 16:54 Cloudy 65 18.3 50 10 59 59 N 9 15 30.15 1021 10 16.0934 0 0
5:54 pm 17:54 Cloudy 64 17.8 50 10 60 60 NNE 9 15 30.17 1022 10 16.0934 0 0
6:54 pm 18:54 Mostly Cloudy 58 14.4 49 9.4 72 72 NNE 7 11 30.19 1022 10 16.0934 0 0
7:54 pm 19:54 Partly Cloudy 55 12.8 48 8.9 77 77 N 3 6 30.21 1023 10 16.0934 0 0
8:54 pm 20:54 Clear 55 12.8 47 8.3 74 74 Calm 30.21 1023 10 16.0934 0 0
9:54 pm 21:54 Clear 49 9.4 43 6.1 80 80 N 7 11 30.23 1024 10 16.0934 0 0
10:54 pm 22:54 Clear 47 8.3 42 5.6 83 83 N 5 7 30.24 1024 10 16.0934 0 0
11:54 pm 23:54 Clear 47 8.3 41 5 80 80 NNW 6 9 30.25 1025 10 16.0934 0 0

Powered by AerisWeather